Weather History for HTMG - February, 2014

Change the Weather History Date:

Thursday, February 6, 2014

  Actual Average Record
Temperature  
Mean Temperature 86 °F -  
Max Temperature 97 °F - - ()
Min Temperature 75 °F - - ()
Cooling Degree Days 21    
Growing Degree Days 36 (Base 50)    
Moisture  
Dew Point 69 °F    
Average Humidity 60    
Maximum Humidity 78    
Minimum Humidity 26    
Precipitation  
Precipitation 0.08 in - - ()
Sea Level Pressure  
Sea Level Pressure 29.79 in    
Wind  
Wind Speed 0 mph ()    
Max Wind Speed 9 mph    
Max Gust Speed -    
Visibility 9.6 miles    
Events Thunderstorm    
T = Trace of Precipitation, MM = Missing Value Source: Averaged Metar Reports

Daily Weather History Graph

Daily Weather History Graph

Search for Another Location

Airport or City:

Trip Planner

Search our weather history database for the weather conditions in past years. The results will help you decide how hot, cold, wet, or windy it might be!

Date:

Astronomy

Feb. 06, 2014 Rise Set
Actual Time 6:32 AM EAT 6:54 PM EAT
Civil Twilight 6:10 AM EAT 7:16 PM EAT
Nautical Twilight 5:45 AM EAT 7:41 PM EAT
Astronomical Twilight 5:19 AM EAT 8:06 PM EAT
Moon 12:12 PM EAT (2/6) No Moon Set
Length of Visible Light 13h 05m
Length of Day
12h 22m
Waxing Crescent, 46% of the Moon is Illuminated
Feb 6
Waxing Crescent
Feb 6
First Quarter
Feb 15
Full
Feb 22
Last Quarter
Mar 1
New

Hourly Weather History & Observations

Time (EAT) Temp. Heat Index Dew Point Humidity Pressure Visibility Wind Dir Wind Speed Gust Speed Precip Events Conditions
12:00 AM 79 °F - 66 °F 57%  in 19 mi Calm Calm - -  
12:00 AM 78.8 °F - 66.2 °F 65% 29.80 in 6.2 mi Calm Calm - N/A   Clear
1:00 AM 77.0 °F - 68.0 °F 74% 29.83 in 6.2 mi Calm Calm - N/A   Partly Cloudy
2:00 AM 77.0 °F - 69.8 °F 78% 29.80 in 6.2 mi Calm Calm - N/A   Mostly Cloudy
3:00 AM 77 °F - 69 °F 70%  in 19 mi Calm Calm - -   Mostly Cloudy
3:00 AM 77.0 °F - 69.8 °F 78% 29.80 in 6.2 mi Calm Calm - N/A   Mostly Cloudy
4:00 AM 77.0 °F - 69.8 °F 78% 29.80 in 6.2 mi Calm Calm - N/A   Mostly Cloudy
6:00 AM 76 °F - 69 °F 75%  in 19 mi Calm Calm - -   Mostly Cloudy
6:00 AM 77.0 °F - 69.8 °F 78% 29.80 in 6.2 mi Calm Calm - N/A   Mostly Cloudy
7:00 AM 77.0 °F - 69.8 °F 78% 29.80 in 6.2 mi Calm Calm - N/A   Mostly Cloudy
8:00 AM 77.0 °F - 69.8 °F 78% 29.83 in 6.2 mi Calm Calm - N/A   Scattered Clouds
9:00 AM 80 °F - 70 °F 63%  in 19 mi Calm Calm - -   Partly Cloudy
9:00 AM 80.6 °F 83.9 °F 69.8 °F 70% 29.83 in 6.2 mi Calm Calm - N/A   Scattered Clouds
10:00 AM 86.0 °F 89.4 °F 68.0 °F 55% 29.83 in 6.2 mi Calm Calm - N/A   Scattered Clouds
11:00 AM 89.6 °F 93.4 °F 68.0 °F 49% 29.83 in 6.2 mi Calm Calm - N/A   Scattered Clouds
12:00 PM 91 °F - 65 °F 33%  in 19 mi Calm Calm - -   Partly Cloudy
12:00 PM 91.4 °F 94.0 °F 66.2 °F 43% 29.80 in 6.2 mi Calm Calm - N/A   Scattered Clouds
1:00 PM 95.0 °F 99.5 °F 68.0 °F 41% 29.80 in 6.2 mi Calm Calm - N/A   Scattered Clouds
2:00 PM 95.0 °F 99.5 °F 68.0 °F 41% 29.77 in 6.2 mi Calm Calm - N/A   Scattered Clouds
3:00 PM 97 °F - 65 °F 26%  in 19 mi Calm Calm - -   Partly Cloudy
3:00 PM 96.8 °F 99.0 °F 64.4 °F 34% 29.74 in 6.2 mi Calm Calm - N/A   Scattered Clouds
4:00 PM 96.8 °F 100.7 °F 66.2 °F 37% 29.71 in 6.2 mi Calm Calm - N/A   Scattered Clouds
6:00 PM 93 °F - 72 °F 42%  in 19 mi Calm Calm - -   Mostly Cloudy
6:00 PM 93.2 °F 100.5 °F 71.6 °F 49% 29.71 in 6.2 mi Calm Calm - N/A   Scattered Clouds
7:00 PM 91.4 °F 95.4 °F 68.0 °F 46% 29.71 in 6.2 mi ENE 9.2 mph - N/A   Partly Cloudy
8:00 PM 80.6 °F 84.6 °F 71.6 °F 74% 29.74 in 6.2 mi Calm Calm - N/A Thunderstorm Thunderstorm
9:00 PM 80 °F - 71 °F 69%  in 19 mi Calm Calm - - Thunderstorm Thunderstorm
9:00 PM 80.6 °F 84.6 °F 71.6 °F 74% 29.74 in 6.2 mi Calm Calm - N/A Thunderstorm Light Thunderstorm
10:00 PM 78.8 °F - 71.6 °F 78% 29.77 in 6.2 mi Calm Calm - N/A   Partly Cloudy
11:00 PM 78.8 °F - 71.6 °F 78% 29.86 in 6.2 mi Calm Calm - N/A Thunderstorm Light Thunderstorm